Regional Weather Roundup
Issued by NWS State College, PA

Home | Current Version | Previous Version | Graphics & Text | Print | Product List | Glossary Off
Versions: 1 2 3 4 5 6 7 8 9 10 11 12 13 14 15 16 17 18 19 20 21 22 23 24 25 26 27 28 29 30 31 32 33 34 35 36 37 38 39 40 41 42 43 44 45 46 47 48 49 50

000
ASUS41 KCTP 301203
RWRCTP

REGIONAL WEATHER ROUNDUP
NATIONAL WEATHER SERVICE STATE COLLEGE PA
800 AM EDT SAT MAY 30 2015

Note: "fair" indicates few or no clouds below 12,000 feet with no
significant weather and/or obstructions to visibility.

* = STATION THAT DOES NOT REPORT PRECIPITATION /E.G. RAIN...SNOW...ETC/
    THUNDER OR FOG.

PAZ002>004-007>009-013>016-020>023-029>032-301300-
WESTERN PENNSYLVANIA

CITY           SKY/WX    TMP DP  RH WIND       PRES   REMARKS
ERIE           PTSUNNY   74  64  71 S14       30.04S
MEADVILLE      CLOUDY    70  63  78 S8        30.10S
FRANKLIN*      CLOUDY    70  61  73 SW10      30.14R
NEW CASTLE     FAIR      70  65  84 CALM      30.12R
BEAVER COUNTY  SUNNY     70  63  78 S7        30.12S
BUTLER*        SUNNY     70  63  78 SW7       30.14S
PITTSBURGH INT PTSUNNY   71  63  75 S7        30.12S
PITTSBURGH     MOSUNNY   70  60  70 S9        30.13R
INDIANA*       SUNNY     72  64  78 SW7       30.18S
LATROBE        SUNNY     72  64  78 SW9       30.16S
WASHINGTON CO* MOSUNNY   70  63  78 SW6       30.16S
$$

PAZ004>006-010>012-017>019-024>028-033>037-041-042-045-046-049>053-301300-
CENTRAL PENNSYLVANIA

CITY           SKY/WX    TMP DP  RH WIND       PRES   REMARKS
BRADFORD       MOSUNNY   69  61  75 SW8       30.14F
DUBOIS         PTSUNNY   70  62  76 S6        30.15R
CLEARFIELD     PTSUNNY   66  64  93 CALM      30.16S FOG
JOHNSTOWN      MOSUNNY   69  60  73 S9        30.19R
ALTOONA        MOSUNNY   69  63  81 SW3       30.18S
STATE COLLEGE  SUNNY     72  66  83 SW6       30.16S
WILLIAMSPORT   PTSUNNY   73  65  75 CALM      30.13S
SELINSGROVE    PTSUNNY   72  65  78 S7        30.17R
FT INDIANTOWN  CLOUDY    69  66  89 S3        30.19R
CAPITAL CITY   CLOUDY    72  65  78 SW5       30.18R
HARRISBURG     CLOUDY    72  65  78 SW7       30.17S
YORK           MOSUNNY   72  67  84 S8        30.18S
$$

PAZ038>040-043-044-047-048-054-055-060>062-067>071-301300-
EASTERN PENNSYLVANIA

CITY           SKY/WX    TMP DP  RH WIND       PRES   REMARKS
SCRANTON       PTSUNNY   73  64  73 S5        30.17S
MOUNT POCONO   CLOUDY    67  63  87 SW8G18    30.23R
ALLENTOWN      CLOUDY    70  64  81 S6        30.20S
QUAKERTOWN*    CLOUDY    68  66  94 SW8       30.22R
READING        CLOUDY    71  65  81 CALM      30.19R
LANCASTER      CLOUDY    71  66  84 SW7       30.19R
COATESVILLE    CLOUDY    68  68 100 S5        30.22R
POTTSTOWN      CLOUDY    68  67  96 VRB5      30.22R
BLUE BELL      CLOUDY    72  68  88 SW6       30.21R
DOYLESTOWN     CLOUDY    68  50  53 VRB5      30.21R
WILLOW GROVE   NOT AVBL
NORTH PHILA    CLOUDY    71  64  78 SW7       30.23R
PHILADELPHIA   CLOUDY    71  66  84 S9        30.21S
$$



USA.gov is the U.S. government's official web portal to all federal, state and local government web resources and services.